Weather Roundup
Issued by NWS

Home | Current Version | Previous Version | Text Only | Print | Product List | Glossary On
Versions: 1 2 3 4 5 6 7 8 9 10 11 12 13 14 15 16 17 18 19 20 21 22 23 24 25 26 27 28 29 30 31 32 33 34 35 36 37 38 39 40 41 42 43 44 45 46 47 48 49 50
000
NZUS93 KARX 181310
HRRWXR

CURRENT HOURLY OBSERVATIONS ACROSS
MUCH OF THE UPPER MISSISSIPPI VALLEY
NATIONAL WEATHER SERVICE LA CROSSE WI
800 AM CDT SAT APR 18 2015


...SOUTHEAST MINNESOTA...


CITY           SKY/WX    TMP DP  RH WIND       PRES   REMARKS
ROCHESTER      MOSUNNY   53  38  56 NE12      30.09R
ROCHESTER/MAYO FAIR      52  36  53 CALM      30.08S
WINONA         MOSUNNY   48  43  81 CALM      30.11R
AUSTIN         LGT RAIN  55  37  50 E7        30.05S
ALBERT LEA     MOSUNNY   55  37  50 NE8       30.05S
DODGE CENTER   MOSUNNY   52  37  58 E12       30.07S
PRESTON        SUNNY     54  37  53 NE8       30.07S
OWATONNA       MOSUNNY   52  34  50 E13G20    30.06S
FARIBAULT      MOSUNNY   54  34  47 NE12      30.07S
$$

...ELSEWHERE IN MINNESOTA...


CITY           SKY/WX    TMP DP  RH WIND       PRES   REMARKS
MINNEAPOLIS    PTSUNNY   53  30  41 E13       30.10R
INTNL FALLS    SUNNY     37  32  82 E10       30.22F WCI  30
DULUTH         SUNNY     40  31  70 E16G28    30.21R WCI  31
RED WING       PTSUNNY   55  28  35 E7        30.10R
REDWOOD FALLS  MOSUNNY   49  30  48 NE8       30.05S
MANKATO        MOSUNNY   55  30  38 N6        30.05S
WORTHINGTON    CLOUDY    52  30  43 N7        30.03S
FAIRMONT       PTSUNNY   52  34  50 N6        30.03S
$$

...SOUTHWEST WISCONSIN...


CITY           SKY/WX    TMP DP  RH WIND       PRES   REMARKS
LA CROSSE      SUNNY     58  33  39 E12G18    30.08S
PRAIRIE DU CHI MOSUNNY   53  47  82 CALM      30.05S
BOSCOBEL       SUNNY     54  47  77 NE5       30.06S
LONE ROCK      MOSUNNY   47  44  90 CALM      30.07S
PLATTEVILLE    MOSUNNY   61  39  45 NE13      30.04S
FORT MC COY    MOSUNNY   53  33  47 E10       30.11S
CAMP DOUGLAS   MOSUNNY   51  40  67 E7        30.12R
VIROQUA        FAIR      56  33  42 E17       30.07S
WIS DELLS      MOSUNNY   52  37  56 NE14      30.11R
$$

...ELSEWHERE IN WISCONSIN...


CITY           SKY/WX    TMP DP  RH WIND       PRES   REMARKS
MILWAUKEE      MOSUNNY   46  34  62 N22G31    30.13R
MADISON        PTSUNNY   56  43  61 NE15      30.09R
GREEN BAY      SUNNY     49  38  65 NE17      30.18R
EAU CLAIRE     PTSUNNY   51  32  48 E10       30.12R
BLACK RVR FLS  FAIR      44  40  86 CALM      30.12R
MEDFORD        SUNNY     46  32  57 E13       30.14S
WAUSAU         SUNNY     47  32  56 NE10      30.14R
WIS RAPIDS     MOSUNNY   53  28  38 E12       30.14R
MARSHFIELD     MOSUNNY   50  31  48 E16       30.13R
RICE LAKE      MOSUNNY   49  32  52 E9        30.16S
$$

...NORTHEAST IOWA...


CITY           SKY/WX    TMP DP  RH WIND       PRES   REMARKS
DECORAH        MOSUNNY   57  43  58 NE7G14    30.05R
MASON CITY     CLOUDY    54  43  66 E8        30.04S
CHARLES CITY   PTSUNNY   59  39  47 E12       30.04S
OELWEIN        MOSUNNY   59  43  55 E12       30.03S
$$

...ELSEWHERE IN IOWA...


CITY           SKY/WX    TMP DP  RH WIND       PRES   REMARKS
DES MOINES     CLOUDY    62  57  83 NE13      29.97F
IOWA CITY      MOSUNNY   61  51  70 N5        30.02R
FORT DODGE     CLOUDY    57  45  62 E10       30.01S
$$

...NORTHERN ILLINOIS...


CITY           SKY/WX    TMP DP  RH WIND       PRES   REMARKS
CHICAGO-OHARE  PTSUNNY   64  46  52 NE8       30.04S
CHICAGO-MIDWAY MOSUNNY   66  50  56 N8        30.04S
MOLINE         MOSUNNY   55  50  83 E3        30.01S
ROCKFORD       PTSUNNY   59  50  72 N3        30.06F
PEORIA         PTSUNNY   64  56  75 CALM      30.02S
$$

NOTE: "FAIR" INDICATES FEW OR NO CLOUDS BELOW 12,000 FEET WITH NO
SIGNIFICANT WEATHER AND/OR OBSTRUCTIONS TO VISIBILITY. WIND
SPEEDS ARE IN MILES-PER-HOUR.



USA.gov is the U.S. government's official web portal to all federal, state and local government web resources and services.